Location: Fasanenhof
(48.7107°N, 9.1590°E)
Time: 12:43:17
(UTC+00:00)

Daily predictions for brighter satellites

Satellite Brightness Start Highest point End
(mag) Time Altitude Azimuth Time Altitude Azimuth Time Altitude Azimuth
NOSS 2-3 (D) 4.2 16:00:01 10° SW 16:04:47 76° NW 16:10:33 10° NE
Cosmos 1655 Rocket 4.1 16:00:02 10° N 16:06:26 71° ENE 16:12:49 10° SSE
SMAP 3.5 16:02:40 10° SE 16:06:59 40° ENE 16:11:20 10° N
Cosmos 1812 3.8 16:03:51 10° SSW 16:07:35 46° WNW 16:11:21 10° N
CSL-04 Rocket 3.9 16:02:44 10° SE 16:08:01 53° ENE 16:13:24 10° N
Cosmos 724 4.2 16:03:50 10° NW 16:09:39 72° NE 16:15:27 10° SE
Cosmos 1484 Rocket 3.3 16:06:16 10° SE 16:10:03 40° ENE 16:13:49 10° N
Okean 1 3.3 16:09:23 10° S 16:13:21 89° W 16:17:21 10° N
NOSS 3-2 (A) 4.0 16:06:10 10° NW 16:13:30 71° NE 16:21:35 10° SE
Ariane Rocket 3.1 16:11:37 10° SE 16:16:30 52° ENE 16:21:25 10° N
COSMOS 2441 4.5 16:11:39 10° SSE 16:16:34 88° WSW 16:21:30 10° NNW
Meteor 1-18 Rocket 4.4 16:11:05 10° SSW 16:16:42 82° WNW 16:22:27 10° N
Cosmos 2369 Rocket 4.2 16:13:42 10° W 16:17:37 19° NW 16:21:33 10° N
Cosmos 1898 Rocket 4.1 16:12:49 10° SW 16:17:57 58° WNW 16:23:11 10° NNE
Cosmos 1697 Rocket 3.9 16:15:09 10° SSE 16:19:22 22° E 16:23:34 10° NE
IRAS Rocket 4.2 16:14:33 10° SSE 16:19:58 67° ENE 16:25:26 10° NNW
NOSS 3-2 (C) 4.0 16:15:01 10° NW 16:22:17 65° NE 16:30:19 10° SE
ALOS 3.5 16:19:37 10° ESE 16:22:59 20° ENE 16:26:21 10° NNE
ATLAS 3B R/B 3.0 16:17:51 10° NW 16:24:33 72° SW 16:31:03 10° SSE
Cosmos 1937 Rocket 3.8 16:19:51 10° SSW 16:24:59 67° WNW 16:30:09 10° NNE
Cosmos 1455 Rocket 3.0 16:21:23 10° N 16:25:51 75° E 16:30:13 10° SSE
Cosmos 1269 Rocket 4.1 16:22:07 10° NNW 16:27:22 56° ENE 16:32:34 10° SE
Cosmos 1125 Rocket 4.0 16:24:44 10° S 16:29:40 41° ESE 16:34:36 10° NE
Cosmos 1544 Rocket 3.5 16:25:59 10° N 16:30:23 88° E 16:34:43 10° S
Cosmos 2082 3.7 16:25:10 10° NNW 16:30:50 84° ENE 16:36:28 10° SSE
Cosmos 1975 3.9 16:26:57 10° NNW 16:30:52 49° W 16:34:48 10° S
ATLAS 2AS CENTAUR R/B 3.1 16:24:07 10° SW 16:32:01 87° SE 16:40:13 10° NE
Meteor 1-28 Rocket 3.9 16:29:52 10° NNE 16:33:21 34° E 16:36:48 10° SSE
Cosmos 1048 Rocket 4.0 16:28:09 10° NNW 16:33:35 75° ENE 16:38:57 10° SSE
USA 161 2.4 16:34:27 10° N 16:37:19 52° WNW 16:40:16 10° SSW
Cosmos 372 Rocket 4.3 16:33:00 10° S 16:37:56 45° ESE 16:42:48 10° NE
Meteor 1-19 Rocket 4.3 16:33:33 10° S 16:39:14 73° E 16:45:04 10° NNE
Cosmos 2227 Rocket 2.6 16:35:33 10° NNW 16:41:11 68° WSW 16:46:47 10° SSE
YAOGAN 1 2.9 16:37:13 10° SE 16:41:20 44° ENE 16:45:27 10° N
USA 215 3.6 16:36:48 10° SE 16:43:19 72° SW 16:49:53 10° WNW
CORIOLIS 4.1 16:37:57 10° SSE 16:43:20 74° ENE 16:48:43 10° NNW
Cosmos 1743 3.7 16:42:38 10° NNW 16:46:25 50° W 16:50:11 10° S
Cosmos 2279 Rocket 4.2 16:40:20 10° SSW 16:46:36 76° W 16:52:53 10° N
NOSS 3-4 (A) 4.1 16:48:04 10° S 16:53:41 36° ESE 16:57:37 19° ENE
NOSS 3-4 (C) 4.1 16:48:11 10° S 16:53:46 36° ESE 16:57:40 19° ENE
Cosmos 1943 Rocket 4.4 16:50:44 10° WNW 16:54:19 17° NW 16:57:55 10° N
COSMO-SKYMED 1 3.4 16:52:08 17° NE 16:54:39 29° E 16:58:27 10° SSE
Meteor 2-9 Rocket 4.2 16:49:35 10° NNW 16:55:08 85° W 17:00:30 10° S
SJ 16-02 1.3 16:52:49 10° S 16:57:10 66° ESE 17:00:50 14° NNE
Cosmos 1980 Rocket 3.1 16:56:20 10° SSE 17:01:02 28° ESE 17:03:12 22° ENE
ERS-2 2.6 16:57:55 10° SE 17:01:19 37° ENE 17:04:45 10° N
Landsat 4 4.3 17:00:50 23° NE 17:02:36 36° E 17:06:08 10° SSE
CENTAUR R/B 3.1 16:55:30 10° NW 17:03:02 57° NE 17:11:15 10° ESE
CZ-4 R/B 1.4 17:01:04 10° S 17:04:58 79° WSW 17:08:59 10° NNW
Cosmos 1656 3.6 17:01:46 10° SSW 17:07:17 71° ESE 17:11:36 17° NNE
Cosmos 2297 Rocket 3.2 17:01:55 10° NW 17:07:23 50° WSW 17:12:48 10° S
Meteor 1-23 Rocket 4.2 17:09:17 10° S 17:14:58 69° E 17:20:37 10° NNE
DNEPR-1 R/B 4.0 17:10:48 10° NW 17:15:45 77° NE 17:21:46 10° SE
Cosmos 1025 Rocket 3.2 17:14:34 10° SSE 17:18:41 48° E 17:20:33 28° NE
MOS 1 4.2 17:15:16 10° SSE 17:20:56 77° ENE 17:26:37 10° NNW
NOAA 12 4.0 17:16:43 10° SSE 17:21:53 61° ENE 17:27:04 10° N
CZ-2C R/B 3.7 17:18:19 10° NNE 17:23:02 87° ESE 17:27:47 10° SSW
Abrixas rocket 2.1 17:20:13 10° W 17:23:29 85° S 17:23:59 61° ESE
Cosmos 2084 3.8 17:19:56 10° SSW 17:23:48 40° SE 17:24:17 38° ESE
Okean 2 3.3 17:23:23 10° S 17:27:24 59° E 17:28:49 36° NNE
Nadezhda 2 Rocket 4.4 17:21:14 10° N 17:27:36 81° E 17:34:00 10° S
Cosmos 2227 4.2 17:23:48 10° NNW 17:29:32 61° ENE 17:35:11 10° SE
Okean 1-7 Rocket 3.7 17:26:48 10° SSE 17:31:03 50° E 17:31:58 42° NE
Cosmos 1536 Rocket 4.4 17:27:42 10° SSW 17:31:54 49° WNW 17:36:08 10° N
Cosmos 2263 Rocket 2.7 17:36:04 10° NNW 17:40:56 36° NE 17:40:56 36° NE
Meteor 2-4 Rocket 4.4 17:36:33 10° SSW 17:41:47 51° WNW 17:47:01 10° N
FENGYUN 3A 3.6 17:36:28 10° SSE 17:41:51 88° ENE 17:47:15 10° NNW
SKYMED 2 3.4 17:40:45 30° NNE 17:42:54 87° ESE 17:47:15 10° SSW
SL-16 R/B 4.0 17:40:40 10° SSE 17:41:53 15° SE 17:41:53 15° SE
Cosmos 1606 Rocket 3.3 17:42:15 10° N 17:46:37 71° ENE 17:50:56 10° SSE
Cosmos 2322 Rocket 4.1 17:44:25 10° SSE 17:45:27 14° SE 17:45:27 14° SE
Cosmos 2278 4.3 17:44:00 10° SW 17:49:35 56° WNW 17:53:23 21° NNE
Cosmos 2369 4.3 17:44:12 10° SW 17:49:45 54° NW 17:53:37 20° NNE
Cosmos 2360 4.2 17:49:47 10° SSW 17:55:25 63° ESE 17:56:32 52° ENE
Cosmos 494 Rocket 4.5 17:51:48 10° NNW 17:57:00 61° WSW 18:02:10 10° S
SPOT 3 Rocket 3.8 17:52:47 10° S 17:57:56 67° WSW 18:03:06 10° NNW
ALOS 2.8 17:55:24 10° S 18:00:00 60° W 18:04:39 10° NNW
Cosmos 1697 Rocket 2.9 17:57:11 10° SW 18:02:48 68° WNW 18:05:20 33° NNE
COSMOS 2455 3.7 17:57:35 10° NNW 18:02:14 34° NNE 18:02:14 34° NNE
Cosmos 2251 Rocket 3.6 17:59:29 10° NNW 18:04:48 76° WSW 18:10:02 10° SSE
S3M 3.8 18:05:17 10° S 18:11:18 66° E 18:12:02 61° ENE
Cosmos 1386 Rocket 4.4 18:12:56 10° N 18:19:18 70° ENE 18:20:25 59° SE
RESURS DK-1 3.9 18:17:10 10° SSW 18:19:19 30° SSW 18:19:19 30° SSW
ATLAS 2AS CENTAUR R/B 4.0 18:16:33 10° W 18:23:59 39° NNW 18:27:44 26° NNE
COSMO-SKYMED 1 4.2 18:29:21 26° NNW 18:30:49 33° WNW 18:34:42 10° SW
SJ 16-02 3.8 18:33:12 10° W 18:36:14 18° NW 18:37:53 15° NNW
Gbstr 26 Del rocket 4.1 18:34:36 10° WSW 18:42:31 82° NNW 18:42:51 79° NNE
Cosmos 1553 Rocket 4.2 18:37:31 10° SSW 18:43:53 69° W 18:46:45 35° N
NOSS 3-4 (A) 3.9 18:38:09 10° WSW 18:44:19 58° NW 18:45:05 54° NNW
NOSS 3-4 (C) 3.9 18:38:13 10° WSW 18:44:24 58° NW 18:45:09 55° NNW
Cosmos 1980 Rocket 2.7 18:39:08 10° SW 18:44:43 56° WNW 18:45:00 55° NW
Cosmos 1745 Rocket 4.5 18:47:09 10° NNW 18:53:13 57° W 18:59:19 10° S
CENTAUR R/B 3.8 18:46:21 10° NW 18:53:53 51° WSW 19:00:09 18° S
Cosmos 2263 Rocket 3.9 19:19:58 10° NW 19:22:41 27° NW 19:22:41 27° NW
SL-16 R/B 4.5 19:22:46 10° SW 19:23:49 16° SW 19:23:49 16° SW
